Sigfox identifier Datetime Temperature Humidity SNR
0038AEE6 2018-10-09 09:12:59 21.3 38 17.4
0038AEE6 2018-10-09 08:09:11 21.3 37 17.5
0038AEE6 2018-10-09 07:05:23 21.3 37 17.2
0038AEE6 2018-10-09 06:01:38 21.3 37 17.1
0038AEE6 2018-10-09 04:57:54 21.3 37 16.9
0038AEE6 2018-10-09 01:46:38 21.3 37 15.9
0038AEE6 2018-10-09 00:42:51 21.3 37 15.6
0038AEE6 2018-10-08 23:39:08 21.3 37 15.6
0038AEE6 2018-10-08 22:35:26 21.3 37 15.7
0038AEE6 2018-10-08 21:31:41 21.3 37 15.1
0038AEE6 2018-10-08 20:28:00 21.3 37 15
0038AEE6 2018-10-08 19:24:11 21.3 37 14.8
0038AEE6 2018-10-08 18:20:26 21.3 36 14.4
0038AEE6 2018-10-08 17:16:40 21.1 36 14.2
0038AEE6 2018-10-08 16:12:56 21 36 13.3
0038AEE6 2018-10-08 15:09:15 21 36 13.2
0038AEE6 2018-10-08 14:05:28 20.9 36 13.1
0038AEE6 2018-10-08 13:01:47 20.8 36 13
0038AEE6 2018-10-08 11:58:07 20.8 37 12.9
0038AEE6 2018-10-08 10:54:25 20.8 37 12.8
0038AEE6 2018-10-08 09:50:42 20.8 37 13.1
0038AEE6 2018-10-08 08:46:57 20.8 37 13.2
0038AEE6 2018-10-08 07:43:12 20.8 37 12.9
0038AEE6 2018-10-08 06:39:30 20.8 38 12.8
0038AEE6 2018-10-08 05:35:41 20.8 38 12.8
0038AEE6 2018-10-08 04:31:55 20.9 38 12.7
0038AEE6 2018-10-08 03:28:09 21 38 13.4
0038AEE6 2018-10-08 02:24:24 21 38 13
0038AEE6 2018-10-08 01:20:39 21 38 12.9
0038AEE6 2018-10-08 00:16:54 21 38 12.7
0038AEE6 2018-10-07 23:13:09 21 38 13.1
0038AEE6 2018-10-07 22:09:23 21 38 13.2
0038AEE6 2018-10-07 21:05:36 21 38 13.2
0038AEE6 2018-10-07 20:01:51 21 38 13
0038AEE6 2018-10-07 18:58:10 21 38 13.3
0038AEE6 2018-10-07 17:54:27 21 38 13.5
0038AEE6 2018-10-07 16:50:42 21 38 13.6
0038AEE6 2018-10-07 15:46:58 21 38 13.8
0038AEE6 2018-10-07 14:43:12 21 38 14.3
0038AEE6 2018-10-07 13:39:26 21 38 14.3
0038AEE6 2018-10-07 12:35:45 21 38 14.2
0038AEE6 2018-10-07 11:32:04 21 38 14
0038AEE6 2018-10-07 10:28:17 21.1 38 14.5
0038AEE6 2018-10-07 09:24:33 21.1 38 14.4
0038AEE6 2018-10-07 08:20:49 21.2 38 15.1
0038AEE6 2018-10-07 07:17:06 21.2 39 14.9
0038AEE6 2018-10-07 06:13:21 21.3 39 15.1
0038AEE6 2018-10-07 05:09:37 21.3 39 15.2
0038AEE6 2018-10-07 04:05:52 21.3 39 15.4
0038AEE6 2018-10-07 03:02:10 21.3 39 15.4
0038AEE6 2018-10-07 01:58:24 21.3 39 15.7
0038AEE6 2018-10-07 00:54:40 21.3 39 15.8
0038AEE6 2018-10-06 23:50:58 21.3 39 16.3
0038AEE6 2018-10-06 22:47:18 21.3 39 16.4
0038AEE6 2018-10-06 21:43:38 21.3 39 16.5
0038AEE6 2018-10-06 20:39:57 21.3 39 16.5
0038AEE6 2018-10-06 19:36:15 21.3 39 16.6
0038AEE6 2018-10-06 18:32:34 21.3 39 16.6
0038AEE6 2018-10-06 17:28:50 21.3 39 16.6
0038AEE6 2018-10-06 16:25:10 21.3 39 16.5
0038AEE6 2018-10-06 15:21:23 21.4 39 16.5
0038AEE6 2018-10-06 14:17:41 21.3 39 16.4
0038AEE6 2018-10-06 13:13:56 21.4 39 16.3
0038AEE6 2018-10-06 12:10:13 21.4 39 16
0038AEE6 2018-10-06 11:06:31 21.4 39 16.1
0038AEE6 2018-10-06 10:02:47 21.5 39 16.8
0038AEE6 2018-10-06 08:59:05 21.5 39 16.8
0038AEE6 2018-10-06 07:55:21 21.5 39 17.5
0038AEE6 2018-10-06 06:51:38 21.5 39 17.6
0038AEE6 2018-10-06 05:47:56 21.5 39 17.2
0038AEE6 2018-10-06 04:44:13 21.5 39 17.2
0038AEE6 2018-10-06 03:40:30 21.5 39 17.2
0038AEE6 2018-10-06 02:36:50 21.6 39 17.1
0038AEE6 2018-10-06 01:33:06 21.6 39 17.1
0038AEE6 2018-10-06 00:29:24 21.6 39 17.2
0038AEE6 2018-10-05 23:25:45 21.7 39 17
0038AEE6 2018-10-05 22:22:00 21.7 39 16.4
0038AEE6 2018-10-05 21:18:17 21.7 39 15.9
0038AEE6 2018-10-05 20:14:33 21.7 38 16.1
0038AEE6 2018-10-05 19:10:50 21.7 38 15.9
0038AEE6 2018-10-05 18:07:07 21.7 38 15.7
0038AEE6 2018-10-05 17:03:25 21.7 38 15.5
0038AEE6 2018-10-05 15:59:41 21.5 38 15.7
0038AEE6 2018-10-05 14:55:57 21.5 37 16
0038AEE6 2018-10-05 13:52:14 21.5 37 16.1
0038AEE6 2018-10-05 12:48:27 21.4 36 16.1
0038AEE6 2018-10-05 11:44:42 21.3 36 16.3
0038AEE6 2018-10-05 10:41:01 21.2 34 17.2
0038AEE6 2018-10-05 09:37:19 21.1 33 17.7
0038AEE6 2018-10-05 08:33:41 21 32 17.9
0038AEE6 2018-10-05 07:29:55 21 32 17.6
0038AEE6 2018-10-05 06:26:13 21 31 18.4
0038AEE6 2018-10-05 05:22:33 21 31 18.4
0038AEE6 2018-10-05 04:18:53 21 32 18.7
0038AEE6 2018-10-05 03:15:14 21 32 19.2
0038AEE6 2018-10-05 02:11:35 21 32 19.5
0038AEE6 2018-10-05 01:07:55 21 32 19.7
0038AEE6 2018-10-05 00:04:14 21.1 32 20.1
0038AEE6 2018-10-04 23:00:29 21 32 20.1
0038AEE6 2018-10-04 21:56:46 21.1 32 20.3
0038AEE6 2018-10-04 20:53:02 21 32 20.4
0038AEE6 2018-10-04 19:49:18 21 32 21
0038AEE6 2018-10-04 18:45:38 21 33 21.7
0038AEE6 2018-10-04 17:41:57 21 33 21.7
0038AEE6 2018-10-04 16:38:17 20.9 33 21.7
0038AEE6 2018-10-04 15:34:37 20.8 32 21.7
0038AEE6 2018-10-04 14:30:55 20.8 32 22.8
0038AEE6 2018-10-04 13:27:11 20.8 33 22.7
0038AEE6 2018-10-04 12:23:27 20.6 33 22.7
0038AEE6 2018-10-04 11:19:42 20.6 34 22.7
0038AEE6 2018-10-04 10:15:58 20.6 35 22.7
0038AEE6 2018-10-04 09:12:14 20.6 35 22.6
0038AEE6 2018-10-04 08:08:30 20.6 36 22.4
0038AEE6 2018-10-04 07:04:44 20.6 37 22.2
0038AEE6 2018-10-04 06:01:01 20.6 38 22.1
0038AEE6 2018-10-04 04:57:20 20.6 38 22.1
0038AEE6 2018-10-04 03:53:34 20.6 39 21.7
0038AEE6 2018-10-04 02:49:47 20.6 39 21.4
0038AEE6 2018-10-04 01:46:02 20.6 39 21.2
0038AEE6 2018-10-04 00:42:14 20.7 40 20.9
0038AEE6 2018-10-03 23:38:28 20.7 40 20.7
0038AEE6 2018-10-03 22:34:41 20.8 41 20.5
0038AEE6 2018-10-03 21:30:55 20.8 41 20.2
0038AEE6 2018-10-03 20:27:12 20.8 41 20.2
0038AEE6 2018-10-03 19:23:26 20.8 41 61.4
0038AEE6 2018-10-03 18:19:40 20.8 41 61.4
0038AEE6 2018-10-03 17:15:52 20.8 42 61.4
0038AEE6 2018-10-03 16:12:07 20.8 42 61.4
0038AEE6 2018-10-03 15:08:24 20.8 42 61.4
0038AEE6 2018-10-03 14:04:41 20.7 42 61.4
0038AEE6 2018-10-03 13:00:54 20.6 41 61.4
0038AEE6 2018-10-03 11:57:07 20.6 41 61.4
0038AEE6 2018-10-03 10:53:22 20.4 41 61.4
0038AEE6 2018-10-03 09:49:39 20.4 41 61.4
0038AEE6 2018-10-03 08:45:53 20.2 40 61.4
0038AEE6 2018-10-03 07:42:08 20.2 41 61.4
0038AEE6 2018-10-03 06:38:25 20.2 41 61.4
0038AEE6 2018-10-03 05:34:41 20.3 41 61.4
0038AEE6 2018-10-03 04:30:55 20.4 41 61.4
0038AEE6 2018-10-03 03:27:05 20.4 42 61.4
0038AEE6 2018-10-03 02:23:21 20.4 42 61.4
0038AEE6 2018-10-03 01:19:34 20.4 42 61.4
0038AEE6 2018-10-03 00:15:52 20.4 42 61.4
0038AEE6 2018-10-02 23:12:06 20.4 42 61.4
0038AEE6 2018-10-02 21:04:38 20.4 41 61.6
0038AEE6 2018-10-02 20:00:57 20.4 42 61.8
0038AEE6 2018-10-02 17:53:26 20.4 42 62
0038AEE6 2018-10-02 16:49:43 20.5 42 62.2
0038AEE6 2018-10-02 14:42:18 20.4 41 62.4
0038AEE6 2018-10-02 13:38:33 20.4 42 12.7
0038AEE6 2018-10-02 12:34:50 20.6 43 12.7
0038AEE6 2018-10-02 11:31:02 20.6 44 12.9
0038AEE6 2018-10-02 10:27:13 20.4 44 12.2
0038AEE6 2018-10-02 07:15:56 20.4 42 12.4
0038AEE6 2018-10-02 06:12:12 20.4 43 12.1
0038AEE6 2018-10-02 05:08:26 20.4 43 12.1
0038AEE6 2018-10-02 04:04:38 20.4 43 11.6
0038AEE6 2018-10-02 03:00:55 20.4 43 11.6
0038AEE6 2018-10-02 01:57:07 20.4 43 11.9
0038AEE6 2018-10-02 00:53:19 20.4 43 12.1
0038AEE6 2018-10-01 23:49:36 20.5 43 12
0038AEE6 2018-10-01 22:45:49 20.5 43 12.3
0038AEE6 2018-10-01 21:42:05 20.6 43 10.5
0038AEE6 2018-10-01 20:38:16 20.6 43 9.2
0038AEE6 2018-10-01 19:34:31 20.6 43 9.7
0038AEE6 2018-10-01 18:30:49 20.4 43 9.9
0038AEE6 2018-10-01 17:26:57 20.4 42 7.4
0038AEE6 2018-10-01 16:23:12 20.2 46 8.5
0038AEE6 2018-10-01 15:19:22 16.1 62 0